User: anonymous   Login
Location: Ammerl�gen
(47.2167°N, 9.6000°E)
Time: 04:01:29
(UTC+00:00)
Language:

ISS - Orbit

View from above orbital plane
View from above orbital plane
View from above satellite
View from above satellite

Ground track
Ground track

The orbit data is extracted from the following two-line orbital elements,

1 25544U 98067A   21333.49546977  .00004890  00000-0  97854-4 0  9991
2 25544  51.6445 245.3426 0004280 259.4736 273.5444 15.48703432314210
Epoch (UTC): 29 November 2021 11:53:28
Eccentricity: 0.0004280
inclination: 51.6445°
perigee height: 417 km
apogee height: 423 km
right ascension of ascending node: 245.3426°
argument of perigee: 259.4736°
revolutions per day: 15.48703432
mean anomaly at epoch: 273.5444°
orbit number at epoch: 31421

The dashed part of the orbit path shows where the satellite is in the earth's shadow,  

DLR